This demonstration page uses our WeatherBlox Daily Observations layout. Learn more.

Left ArrowRight Arrow

Hourly Observations for June 7, 2017

Temp ( °F °C ) Dew Point ( °F °C ) Humidity (%) Winds ( mph kmh ) Pressure ( in mb ) Visibility ( mi km ) Precip ( " mm )
12:59 am 00:59 Mostly Cloudy 71 21.7 64 17.8 79 79 ENE 10 17 29.82 1010 10 16 0.00 0.00
1:59 am 01:59 Mostly Cloudy 70 21.1 64 17.8 82 82 E 10 17 29.83 1010 9 14 0.00 0.00
2:23 am 02:23 Mostly Cloudy 69 20.6 64 17.8 84 84 ENE 12 19 29.83 1010 9 14 0.00 0.00
2:59 am 02:59 Mostly Cloudy 69 20.6 63 17.2 81 81 E 13 20 29.83 1010 9 14 0.00 0.00
3:59 am 03:59 Mostly Cloudy 68 20 61 16.1 78 78 E 13 20 29.83 1010 10 16 0.00 0.00
4:59 am 04:59 Cloudy 67 19.4 60 15.6 79 79 ENE 13 20 29.84 1011 10 16 0.00 0.00
5:30 am 05:30 Mostly Cloudy 67 19.4 60 15.6 79 79 E 13 20 29.85 1011 10 16 0.00 0.00
5:59 am 05:59 Cloudy 66 18.9 59 15 78 78 ENE 14 22 29.85 1011 10 16 0.00 0.00
6:59 am 06:59 Cloudy 66 18.9 58 14.4 75 75 ENE 13 20 29.87 1012 10 16 0.00 0.00
7:59 am 07:59 Cloudy 66 18.9 58 14.4 75 75 E 13 20 29.90 1013 10 16 0.00 0.00
8:59 am 08:59 Cloudy 65 18.3 56 13.3 73 73 ENE 14 22 29.92 1013 10 16 0.00 0.00
9:59 am 09:59 Cloudy 66 18.9 56 13.3 70 70 ENE 14 22 29.93 1014 10 16 0.00 0.00
10:59 am 10:59 Cloudy 66 18.9 57 13.9 73 73 ENE 15 24 29.94 1014 10 16 0.00 0.00
11:59 am 11:59 Cloudy 64 17.8 55 12.8 73 73 NE 15 24 29.96 1015 10 16 0.00 0.00
12:59 pm 12:59 Cloudy 65 18.3 55 12.8 70 70 NE 16 26 29.97 1015 10 16 0.00 0.00
1:59 pm 13:59 Cloudy 64 17.8 54 12.2 70 70 ENE 13 20 29.98 1015 10 16 0.00 0.00
2:14 pm 14:14 Cloudy 65 18.3 54 12.2 68 68 ENE 16 26 30.00 1016 10 16 0.00 0.00
2:23 pm 14:23 Cloudy 64 17.8 53 11.7 68 68 NE 15 24 30.00 1016 10 16 0.00 0.00
2:49 pm 14:49 Mostly Cloudy 66 18.9 53 11.7 63 63 ENE 15 24 30.00 1016 10 16 0.00 0.00
2:59 pm 14:59 Mostly Cloudy 67 19.4 53 11.7 61 61 ENE 16 26 29.98 1015 10 16 0.00 0.00
3:37 pm 15:37 Mostly Cloudy 66 18.9 54 12.2 65 65 ENE 15 24 29.97 1015 10 16 0.00 0.00
3:59 pm 15:59 Mostly Cloudy 66 18.9 54 12.2 65 65 ENE 16 26 29.98 1015 10 16 0.00 0.00
4:59 pm 16:59 Mostly Cloudy 65 18.3 54 12.2 68 68 E 16 26 29.99 1016 10 16 0.00 0.00
5:21 pm 17:21 Mostly Cloudy 65 18.3 54 12.2 68 68 ENE 15 24 30.00 1016 10 16 0.00 0.00
5:59 pm 17:59 Mostly Cloudy 64 17.8 53 11.7 68 68 ENE 18 30 29.98 1015 10 16 0.00 0.00
6:59 pm 18:59 Mostly Cloudy 63 17.2 51 10.6 65 65 ENE 15 24 29.99 1016 10 16 0.00 0.00
7:40 pm 19:40 Mostly Cloudy 63 17.2 52 11.1 68 68 ENE 15 24 30.00 1016 10 16 0.00 0.00
7:59 pm 19:59 Mostly Cloudy 62 16.7 52 11.1 70 70 E 16 26 30.00 1016 10 16 0.00 0.00
8:59 pm 20:59 Cloudy 62 16.7 51 10.6 67 67 E 14 22 30.01 1016 10 16 0.00 0.00
9:59 pm 21:59 Cloudy 62 16.7 50 10 65 65 ENE 15 24 30.02 1017 10 16 0.00 0.00
10:59 pm 22:59 Mostly Cloudy 62 16.7 50 10 65 65 ENE 10 17 30.03 1017 10 16 0.00 0.00
11:59 pm 23:59 Mostly Cloudy 62 16.7 50 10 65 65 NE 14 22 30.02 1017 10 16 0.00 0.00

Powered by AerisWeather